Torna al catalogo

Sitro-TD-4

AttivoComunicazioniSSO
NORAD 67265·PAYLOAD·🇷🇺 Russia

Lanciato Dec 28, 2025 da Vostochny Cosmodrome

Loading…

Prossimi Passaggi (prossime 24 ore)

TLE

AggiornatoSource: Space-Track

Epoca: Sep 14, 2026, 03:41 UTC

1 67265U 25313T   26257.15358259  .00006658  00000-0  27194-3 0  9991
2 67265  97.3860 330.5549 0015121  55.8861 304.3809 15.24612092 39509

Traccia Sitro-TD-4 in tempo reale con AllMySat

Download on the App Store